Home > Weather > Barranquilla > Past weeks

Flag for Colombia Weather for the Past 2 Weeks in Barranquilla, Colombia

Now
81 °F

Passing clouds.


Feels Like: 88 °F
Forecast: 81 / 91 °F
Wind: 3 mph from Northeast

Location: Barranquilla / Ernestocortissoz

Current Time: May 1, 2016 at 6:01:20 AM

Latest Report: May 1, 2016 at 5:00 AM


Visibility: N/A

Pressure: 29.79 "Hg

Humidity: 94%

Dew Point: 79 °F

Location of BarranquillaLocation

Historic Weather in Barranquilla — Graph

°F

Barranquilla Temperature Yesterday

Maximum temperature yesterday: 95 °F (at 12:00 PM)
Minimum temperature yesterday: 77 °F (at 2:00 PM)
Average temperature yesterday: 85 °F

High & Low Weather Summary for the Past Weeks

 TemperatureHumidityPressure
High135 °F (Apr 17, 1:00 AM)100% (Apr 19, 4:00 AM)29.92 "Hg (Apr 19, 4:00 AM)
Low45 °F (Apr 19, 4:00 AM)17% (Apr 17, 1:00 AM)29.69 "Hg (Apr 26, 3:00 PM)
Average84 °F83%29.81 "Hg
* Reported Apr 16 5:00 AM — May 1 5:00 AM, Barranquilla, Weather by CustomWeather, © 2016

Note: Actual official high and low records may vary slightly from our data, if they occured in-between our weather recording intervals... More about our weather records

Advertising

Barranquilla Weather History for the Previous 24 Hours

Scroll right to see more
 ConditionsComfort  
Time TempWeatherWind HumidityBarometerVisibility
5:00 AM
Sun, May 1
81 °FPassing clouds.3 mph94%29.79 "HgN/A
4:00 AM81 °FPassing clouds.7 mph94%29.78 "HgN/A
3:00 AM82 °FPassing clouds.3 mph94%29.77 "HgN/A
2:00 AM82 °FPassing clouds.7 mph94%29.78 "HgN/A
1:00 AM82 °FPassing clouds.3 mph94%29.79 "HgN/A
12:00 AM81 °FPassing clouds.7 mph100%29.81 "HgN/A
11:00 PM
Sat, Apr 30
82 °FPassing clouds.6 mph94%29.81 "HgN/A
10:00 PM82 °FPassing clouds.6 mph94%29.82 "HgN/A
9:00 PM82 °FPassing clouds.5 mph94%29.80 "HgN/A
8:00 PM82 °FPassing clouds.8 mph94%29.79 "HgN/A
6:00 PM86 °FPartly sunny.12 mph84%29.74 "HgN/A
5:00 PM88 °FScattered clouds.9 mph79%29.71 "HgN/A
4:00 PM90 °FScattered clouds.9 mph71%29.72 "HgN/A
3:00 PM82 °FScattered clouds.9 mph94%29.73 "HgN/A
2:00 PM77 °FWarm.16 mph94%29.77 "HgN/A
1:00 PM86 °FDrizzle. Partly sunny.17 mph75%29.75 "Hg5 mi
12:00 PM95 °FScattered clouds.7 mph60%29.77 "HgN/A
11:00 AM93 °FScattered clouds.3 mph67%29.80 "HgN/A
10:00 AM91 °FScattered clouds.7 mph71%29.81 "HgN/A
9:00 AM88 °FPartly sunny.3 mph79%29.81 "HgN/A
8:00 AM84 °FFog.9 mph89%29.80 "Hg4 mi
7:00 AM82 °FFog.8 mph94%29.79 "Hg2 mi
6:00 AM82 °FFog.3 mph94%29.78 "Hg2 mi
Weather by CustomWeather, © 2016

See weather overviewHow to use our weather pages